EDT,Max TemperatureF,Mean TemperatureF,Min TemperatureF,Max Dew PointF,MeanDew PointF,Min DewpointF,Max Humidity, Mean Humidity, Min Humidity, Max Sea Level PressureIn, Mean Sea Level PressureIn, Min Sea Level PressureIn, Max VisibilityMiles, Mean VisibilityMiles, Min VisibilityMiles, Max Wind SpeedMPH, Mean Wind SpeedMPH, Max Gust SpeedMPH,PrecipitationIn, CloudCover, Events, WindDirDegrees
2013-8-1,85,79,72,75,73,70,93,82,70,30.04,29.97,29.91,10,8,2,16,6,21,0.65,6,Rain-Thunderstorm,190
2013-8-2,90,82,74,79,74,72,94,81,68,30.05,30.00,29.92,10,7,0,21,5,26,1.46,5,Fog-Rain-Thunderstorm,216
2013-8-3,91,84,77,77,75,73,94,77,59,30.06,30.01,29.94,10,10,10,15,7,22,0.06,3,Thunderstorm,217
2013-8-4,86,76,66,75,72,64,94,76,58,30.04,29.94,29.88,10,9,2,17,5,22,0.00,3,Rain,347
2013-8-5,86,75,63,68,63,55,100,69,37,30.10,30.05,30.03,10,6,0,9,3,14,0.01,1,Fog,122
2013-8-6,86,76,66,69,67,62,93,74,55,30.10,30.07,30.03,10,10,10,10,2,14,0.00,3,,149
2013-8-7,88,79,69,72,70,66,97,76,55,30.13,30.10,30.07,10,10,10,14,5,24,0.00,1,,138
2013-8-8,89,81,73,76,73,71,93,76,59,30.11,30.07,30.03,10,8,0,12,3,15,0.09,3,Fog-Rain,180
2013-8-9,93,85,77,77,76,75,94,77,60,30.10,30.07,30.03,10,10,8,15,8,20,T,2,,217
2013-8-10,95,86,76,79,75,71,91,72,53,30.14,30.10,30.02,10,9,2,18,7,23,0.32,3,Rain-Thunderstorm,226
2013-8-11,95,85,75,77,75,73,94,74,53,30.13,30.09,30.03,10,9,6,14,5,20,0.01,2,Rain,241
2013-8-12,95,85,75,77,75,72,91,74,56,30.09,30.02,29.96,10,8,1,18,5,30,1.04,3,Rain-Thunderstorm,218
2013-8-13,91,83,75,79,75,69,87,78,68,29.96,29.88,29.81,10,8,1,25,6,33,1.03,4,Rain-Thunderstorm,205
2013-8-14,78,74,70,74,69,59,94,79,64,30.08,29.92,29.81,10,9,2,15,7,20,0.08,6,Rain-Thunderstorm,336
2013-8-15,75,71,66,66,62,59,93,76,58,30.14,30.10,30.07,10,10,5,10,7,,0.30,7,Rain,42
2013-8-16,75,72,68,68,66,64,90,82,74,30.17,30.12,30.07,10,9,3,13,8,16,0.07,7,Rain,25
2013-8-17,81,75,69,76,72,64,94,87,79,30.16,30.12,30.08,10,10,5,15,6,22,0.17,7,Rain,47
2013-8-18,90,82,74,75,73,72,94,77,59,30.21,30.16,30.13,10,10,9,10,5,14,0.00,5,,255
2013-8-19,79,77,74,74,72,71,94,87,79,30.19,30.15,30.10,10,9,1,13,5,15,0.29,7,Rain,37
2013-8-20,85,79,73,75,73,72,94,82,70,30.20,30.16,30.11,10,9,2,9,3,12,0.06,6,Rain,56
2013-8-21,91,81,71,77,72,70,93,76,59,30.24,30.19,30.12,10,5,0,13,2,15,0.00,3,Fog,134
2013-8-22,89,80,71,76,73,69,93,78,63,30.16,30.10,30.03,10,10,2,12,3,16,0.21,2,Rain-Thunderstorm,252
2013-8-23,91,82,72,75,72,68,93,75,56,30.04,29.99,29.93,10,10,8,24,5,30,0.01,1,,256
2013-8-24,83,76,68,70,66,62,93,74,54,30.28,30.15,30.05,10,10,5,17,9,23,0.00,3,,16
2013-8-25,82,74,66,63,62,61,87,69,51,30.36,30.31,30.27,10,10,10,18,9,23,0.00,1,,33
2013-8-26,85,74,62,65,61,54,90,62,34,30.31,30.23,30.14,10,10,10,9,2,13,0.00,0,,13
2013-8-27,88,77,66,69,65,62,93,71,48,30.14,30.05,29.99,10,10,10,13,6,18,0.00,0,,226
2013-8-28,89,80,71,77,71,64,91,75,59,30.01,29.96,29.91,10,9,5,10,5,14,0.01,1,Rain,227
2013-8-29,89,82,74,75,73,69,91,78,65,30.01,29.90,29.84,10,8,6,22,8,61,T,5,Rain,336
2013-8-30,87,78,68,71,69,66,97,74,51,30.06,30.02,29.97,10,9,4,12,4,15,0.00,3,,46
2013-8-31,91,80,68,75,70,66,100,75,49,30.00,29.96,29.91,10,5,0,13,3,16,0.00,3,Fog,189